[[{"header":{"parameterUnit":"m.s-1","parameterCategory":1,"la1":30.2991,"la2":30.254,"lo1":-89.0895,"lo2":-89.0444,"dy":0.0017,"dx":0.0017,"nx":28,"ny":28,"refTime":"2024-07-27T09:00:00:Z","depth":0,"parameterNumber":2,"parameterNumberName":"U-component_of_WINDS"},"data":[0,0,0,0,0,0,0,0,0,0,0,0,0,0,0,0,0,0,0,0,0,0,0,0,0,0,0,0,0,0,0,0,0,0,0,0,0,0,0,0,0,0,0,0,0,0,0,0,0,0,0,0,0,0,0,0,0,0,1.1566,1.1566,0,1.1581,1.1581,1.1581,1.1538,1.1537,1.1536,1.1534,1.1554,1.1556,1.1557,0,0,0,0,0,0,0,0,0,0,0,0,0,1.1502,1.1503,1.1566,1.1566,1.1566,1.1581,1.1581,1.1581,1.1539,1.1537,1.1535,1.1534,1.1553,1.1555,1.1557,0,0,0,0,0,0,0,0,0,0,0,0,0,1.1525,1.1504,1.1566,1.1546,1.1545,1.1581,1.1581,1.1581,1.1539,1.1537,1.1535,1.1533,1.1553,1.1555,1.1558,1.1614,0,0,1.1566,1.1567,0,0,0,0,0,0,0,0,1.1523,1.1527,1.1549,1.1548,1.1546,1.1556,1.1566,1.1593,1.154,1.1541,1.1534,1.1532,1.1556,1.1559,1.1566,1.1615,1.1616,1.1566,1.1568,1.1569,1.157,0,0,0,0,0,0,0,1.1522,1.1526,1.1572,1.1549,1.1548,1.1538,1.1539,1.1571,1.156,1.1541,1.1538,1.154,1.1555,1.1563,1.1566,1.1616,1.1566,1.1568,1.157,1.1571,1.1713,1.1715,0,0,0,0,0,0,1.1522,1.1525,1.1571,1.1572,1.1529,1.1541,1.1542,1.1555,1.156,1.1558,1.1542,1.1538,1.156,1.1563,1.1567,1.1633,1.1569,1.1571,1.1573,1.171,1.1713,1.1715,0,0,0,0,0,0,1.1521,1.1527,1.1571,1.1548,1.1553,1.1544,1.1559,1.1556,1.1564,1.156,1.1558,1.1552,1.1558,1.1563,1.1602,1.1634,1.1572,1.1575,1.1708,1.1711,1.1714,1.1768,0,0,0,0,0,0,1.1519,1.1527,1.1548,1.1549,1.1554,1.1606,1.1561,1.1558,1.1569,1.1564,1.1569,1.1568,1.1557,1.1599,1.1605,1.1636,1.1577,1.1705,1.1709,1.1713,1.1763,1.1772,1.178,0,0,0,0,0,1.1517,1.1563,1.1549,1.1555,1.158,1.1608,1.1611,1.1596,1.1571,1.1593,1.159,1.1568,1.1629,1.1603,1.161,1.1642,1.1703,1.1708,1.1713,1.1759,1.1771,1.178,0,0,0,0,0,0,1.1567,1.1563,1.1547,1.1594,1.1601,1.16,1.1627,1.1609,1.1624,1.1619,1.1601,1.1603,1.1646,1.1648,1.1619,1.1697,1.1662,1.1668,1.1695,1.1705,1.1714,1.1713,1.1579,0,0,0,0,0,1.1584,1.1606,1.1601,1.1643,1.1647,1.1636,1.1648,1.1636,1.1643,1.1646,1.1646,1.1655,1.1676,1.169,1.1709,1.1762,1.1764,1.1788,1.1796,1.1803,1.181,1.1839,1.185,1.1732,1.1732,1.1731,0,0,1.1618,1.1618,1.1634,1.1653,1.1657,1.1681,1.1639,1.1667,1.1685,1.1651,1.1688,1.1688,1.1697,1.1744,1.1764,1.1746,1.1842,1.181,1.1815,1.1818,1.1845,1.1856,1.1866,1.1735,1.1734,1.1734,0,0,1.1693,1.1695,1.173,1.1735,1.1741,1.1733,1.1742,1.1743,1.1742,1.1778,1.1753,1.1775,1.1811,1.1818,1.1827,1.1903,1.1884,1.191,1.1955,1.1983,1.1993,1.2001,1.203,1.204,1.1916,1.1916,1.1916,0,1.1736,1.177,1.1751,1.178,1.1789,1.1758,1.1794,1.1799,1.1812,1.182,1.1799,1.1844,1.1847,1.1895,1.1914,1.1921,1.1931,1.191,1.1993,1.2001,1.2008,1.2035,1.2046,1.1919,1.1919,1.1918,1.1918,0,1.1823,1.1847,1.1874,1.1886,1.1898,1.1931,1.1917,1.1932,1.1918,1.1913,1.1951,1.1954,1.1973,1.1983,1.197,1.2029,1.2018,1.1995,1.196,1.2023,1.2048,1.2058,1.1924,1.1922,1.1921,1.1921,0,0,1.1932,1.1931,1.1942,1.1947,1.195,1.1969,1.2,1.2017,1.2031,1.204,1.2067,1.2097,1.2076,1.2085,1.2073,1.2097,1.2159,1.2072,1.2072,1.2089,1.2226,1.2244,1.2256,1.2145,1.2147,1.2149,1.2225,0,1.2007,1.2059,1.2042,1.2095,1.2118,1.2087,1.2114,1.212,1.2115,1.2134,1.2129,1.2152,1.2121,1.2127,1.215,1.2147,1.2186,1.2141,1.2172,1.2173,1.2172,1.2269,1.2289,1.2361,1.2235,1.2236,1.2238,0,1.2102,1.2114,1.2169,1.2168,1.2177,1.2202,1.2216,1.2234,1.224,1.2235,1.2245,1.2227,1.2258,1.2221,1.2264,1.2233,1.2245,1.2245,1.2248,1.2252,1.2211,1.2278,1.2384,1.2396,1.2253,1.2252,1.225,0,1.2178,1.2208,1.2244,1.2249,1.2249,1.2267,1.2268,1.2272,1.2283,1.2296,1.2303,1.2319,1.2329,1.2343,1.233,1.2304,1.2376,1.2337,1.2374,1.2375,1.2393,1.2392,1.2504,1.2397,1.2397,1.2397,1.2396,0,1.2265,1.23,1.2278,1.2301,1.234,1.232,1.2359,1.2356,1.236,1.2382,1.2357,1.2379,1.236,1.238,1.2371,1.2409,1.2413,1.2411,1.2409,1.2415,1.2415,1.2424,1.2419,1.2399,1.2399,1.2398,1.2398,0,1.2358,1.2344,1.2382,1.2378,1.2378,1.2407,1.2404,1.2425,1.2418,1.2447,1.2453,1.2442,1.2465,1.2453,1.2477,1.2471,1.252,1.251,1.2518,1.2516,1.2555,1.2552,1.2678,1.2694,1.2574,1.2575,1.2576,0,1.2415,1.2441,1.2439,1.2452,1.2454,1.2475,1.2486,1.2466,1.2479,1.2487,1.2508,1.2528,1.2543,1.2582,1.2577,1.2595,1.2587,1.2629,1.2589,1.2595,1.2589,1.2589,1.2592,1.2638,1.2639,1.2641,1.2641,0,1.2518,1.251,1.2526,1.254,1.2553,1.2563,1.2572,1.2584,1.2564,1.258,1.2602,1.2614,1.2637,1.2659,1.2674,1.2676,1.2657,1.2653,1.2663,1.2671,1.2676,1.2675,1.2542,1.2651,1.265,1.265,1.2649,1.2649,1.2596,1.2618,1.262,1.2639,1.2642,1.265,1.267,1.2665,1.2683,1.27,1.2687,1.2714,1.2719,1.2737,1.2742,1.2763,1.2747,1.2761,1.2765,1.2769,1.2775,1.267,1.2766,1.2766,1.2765,1.2765,1.2765,0,1.27,1.2699,1.2716,1.2728,1.2743,1.272,1.2728,1.2742,1.2765,1.2771,1.2786,1.2812,1.2832,1.2828,1.2846,1.2864,1.2856,1.287,1.287,1.2871,1.2788,1.2778,1.2876,1.2876,1.2876,1.2876,1.2876,1.2876,1.2756,1.2792,1.2784,1.2821,1.282,1.2845,1.2852,1.2859,1.2863,1.2893,1.2909,1.2905,1.2907,1.2925,1.2943,1.2941,1.295,1.2969,1.2964,1.2887,1.2876,1.2866,1.2857,1.297,1.297,1.3045,1.3046,1.3047]},{"header":{"parameterUnit":"m.s-1","parameterCategory":1,"la1":30.2991,"la2":30.254,"lo1":-89.0895,"lo2":-89.0444,"dy":0.0017,"dx":0.0017,"nx":28,"ny":28,"refTime":"2024-07-27T09:00:00:Z","depth":0,"parameterNumber":3,"parameterNumberName":"V-component_of_WINDS"},"data":[0,0,0,0,0,0,0,0,0,0,0,0,0,0,0,0,0,0,0,0,0,0,0,0,0,0,0,0,0,0,0,0,0,0,0,0,0,0,0,0,0,0,0,0,0,0,0,0,0,0,0,0,0,0,0,0,0,0,2.1482,2.1482,0,2.1465,2.1464,2.1464,2.1456,2.1456,2.1456,2.1456,2.1438,2.1437,2.1437,0,0,0,0,0,0,0,0,0,0,0,0,0,2.1508,2.1508,2.1482,2.1482,2.1482,2.1465,2.1464,2.1464,2.1456,2.1456,2.1456,2.1456,2.1438,2.1437,2.1437,0,0,0,0,0,0,0,0,0,0,0,0,0,2.1494,2.1507,2.1482,2.1475,2.1475,2.1465,2.1464,2.1464,2.1456,2.1456,2.1456,2.1456,2.1438,2.1437,2.1437,2.1432,0,0,2.1434,2.1434,0,0,0,0,0,0,0,0,2.1495,2.1493,2.1477,2.1476,2.1475,2.1462,2.1467,2.1453,2.1456,2.1463,2.1456,2.1456,2.1446,2.1444,2.1441,2.1431,2.143,2.1434,2.1434,2.1433,2.1433,0,0,0,0,0,0,0,2.1496,2.1494,2.1475,2.1476,2.1475,2.1473,2.1471,2.1464,2.1455,2.1462,2.1462,2.146,2.1445,2.1442,2.1441,2.143,2.1434,2.1434,2.1433,2.1433,2.1415,2.1415,0,0,0,0,0,0,2.1498,2.1495,2.1476,2.1475,2.1485,2.1473,2.1471,2.1466,2.1455,2.1453,2.146,2.146,2.1443,2.1442,2.144,2.1434,2.1433,2.1433,2.1432,2.1415,2.1415,2.1415,0,0,0,0,0,0,2.1499,2.1496,2.1476,2.1485,2.1482,2.1472,2.1468,2.1466,2.1463,2.1453,2.1451,2.1458,2.1443,2.1441,2.1434,2.1433,2.1432,2.1432,2.1415,2.1415,2.1415,2.1421,0,0,0,0,0,0,2.1499,2.1497,2.1495,2.1485,2.1481,2.1471,2.1468,2.1466,2.1461,2.1461,2.1451,2.1449,2.1443,2.1435,2.1433,2.1432,2.1431,2.1415,2.1415,2.1415,2.1421,2.1421,2.1422,0,0,0,0,0,2.15,2.1497,2.1495,2.1492,2.1479,2.1471,2.1469,2.1462,2.1461,2.1459,2.1453,2.1449,2.1434,2.1434,2.1432,2.1431,2.1415,2.1415,2.1415,2.1421,2.1421,2.1422,0,0,0,0,0,0,2.1507,2.1495,2.1493,2.1486,2.1479,2.1469,2.1466,2.1463,2.1456,2.1456,2.1448,2.1446,2.1439,2.1434,2.1436,2.1426,2.1424,2.1423,2.1429,2.1429,2.143,2.1431,2.143,0,0,0,0,0,2.1508,2.1502,2.1492,2.1487,2.1484,2.1476,2.1472,2.1468,2.146,2.1457,2.1451,2.1444,2.1437,2.1433,2.1427,2.142,2.1418,2.1418,2.1419,2.1419,2.1419,2.1415,2.1415,2.1415,2.1415,2.1415,0,0,2.1509,2.1502,2.1499,2.1488,2.1483,2.1477,2.1474,2.1468,2.1463,2.1457,2.145,2.1444,2.1436,2.143,2.1426,2.1425,2.1418,2.1419,2.1419,2.1419,2.1415,2.1415,2.1415,2.1415,2.1415,2.1415,0,0,2.1508,2.1503,2.1498,2.1492,2.1484,2.1479,2.1478,2.1468,2.1464,2.1457,2.1452,2.1447,2.1436,2.1431,2.1426,2.1424,2.1421,2.1423,2.1424,2.1421,2.1421,2.1421,2.1421,2.142,2.1422,2.1422,2.1422,0,2.1511,2.1502,2.1496,2.149,2.1486,2.148,2.1475,2.147,2.146,2.1457,2.1456,2.1443,2.1436,2.1429,2.1428,2.1425,2.1424,2.1423,2.1422,2.1422,2.1421,2.1421,2.1421,2.1422,2.1422,2.1422,2.1422,0,2.1506,2.15,2.1497,2.1488,2.1483,2.1478,2.1471,2.1467,2.1463,2.1458,2.1451,2.1444,2.1436,2.1434,2.143,2.1426,2.1425,2.1423,2.1421,2.1422,2.1421,2.1421,2.1423,2.1423,2.1423,2.1423,0,0,2.1509,2.1496,2.1495,2.1491,2.1482,2.1477,2.1472,2.1464,2.1461,2.1455,2.145,2.1441,2.1439,2.1435,2.143,2.1427,2.1427,2.1425,2.1425,2.1426,2.1422,2.1424,2.1424,2.1424,2.1424,2.1424,2.1423,0,2.1507,2.1497,2.1491,2.1484,2.1479,2.1473,2.1469,2.1463,2.1458,2.1453,2.1447,2.1441,2.1439,2.1436,2.1433,2.1427,2.1426,2.1427,2.142,2.142,2.1422,2.1423,2.1425,2.1424,2.1422,2.1422,2.1422,0,2.1503,2.1497,2.1489,2.1481,2.1479,2.1475,2.1468,2.1463,2.1456,2.1452,2.1448,2.1443,2.1438,2.1436,2.1429,2.143,2.1427,2.1424,2.1423,2.1422,2.1421,2.1422,2.1423,2.1423,2.1422,2.1422,2.1422,0,2.1506,2.1496,2.149,2.1487,2.1477,2.1474,2.147,2.1463,2.1459,2.1453,2.145,2.1444,2.144,2.1435,2.1429,2.1429,2.1422,2.142,2.1419,2.1419,2.1418,2.1418,2.1419,2.1416,2.1416,2.1416,2.1416,0,2.1505,2.15,2.1491,2.1488,2.1483,2.1476,2.1471,2.1467,2.1461,2.1456,2.1451,2.1447,2.1439,2.1434,2.143,2.1424,2.1423,2.142,2.1419,2.142,2.1421,2.1418,2.1418,2.1416,2.1416,2.1416,2.1416,0,2.1507,2.1501,2.1494,2.1485,2.1483,2.148,2.1472,2.1469,2.1464,2.1458,2.1457,2.1449,2.1443,2.1437,2.1428,2.1425,2.142,2.1418,2.1423,2.1422,2.1421,2.1422,2.142,2.142,2.1417,2.1417,2.1417,0,2.1506,2.1503,2.1494,2.149,2.1486,2.1481,2.1477,2.1471,2.1467,2.1459,2.1457,2.145,2.1445,2.1436,2.1429,2.1423,2.1421,2.1421,2.142,2.1422,2.1421,2.1422,2.1421,2.1421,2.1422,2.1422,2.1422,0,2.1506,2.1503,2.1497,2.1491,2.1487,2.1481,2.1476,2.1473,2.1466,2.1462,2.1456,2.1452,2.1444,2.1438,2.1431,2.1427,2.1423,2.1422,2.1422,2.1423,2.1426,2.1424,2.1423,2.1422,2.1422,2.1422,2.1422,2.1422,2.1506,2.1503,2.1497,2.1491,2.1486,2.1481,2.1478,2.1472,2.1467,2.146,2.1457,2.1451,2.1445,2.1435,2.1431,2.1426,2.1425,2.1425,2.1424,2.1424,2.1425,2.1427,2.1425,2.1425,2.1425,2.1425,2.1425,0,2.1506,2.1501,2.1496,2.1489,2.1484,2.1482,2.1476,2.1472,2.1467,2.1461,2.1456,2.145,2.1444,2.1438,2.1431,2.1429,2.1427,2.1428,2.1428,2.1427,2.1426,2.1427,2.1429,2.1429,2.1429,2.1429,2.1429,2.1429,2.1505,2.15,2.1496,2.1488,2.1484,2.1478,2.1475,2.1471,2.1466,2.1459,2.1454,2.145,2.1444,2.1438,2.1433,2.1431,2.1429,2.143,2.1428,2.1427,2.1427,2.1426,2.1427,2.143,2.143,2.1429,2.1429,2.1429]}]]